Weather History for Key West NAF, FL

Change the Weather History Date:

Sunday, March 17, 2013

  Actual Average Record
Temperature  
Mean Temperature 74 °F -  
Max Temperature 81 °F 79 °F 85 °F (1964)
Min Temperature 69 °F 69 °F 53 °F (1988)
Cooling Degree Days 9    
Growing Degree Days 24 (Base 50)    
Moisture  
Dew Point 62 °F    
Average Humidity 68    
Maximum Humidity 81    
Minimum Humidity 54    
Precipitation  
Precipitation 0.00 in - - ()
Sea Level Pressure  
Sea Level Pressure 30.07 in    
Wind  
Wind Speed 10 mph (ESE)    
Max Wind Speed 14 mph    
Max Gust Speed -    
Visibility 10 miles    
Events      
Averages and records for this station are not official NWS values.
T = Trace of Precipitation, MM = Missing Value Source: NWS Daily Summary

Daily Weather History Graph

Daily Weather History Graph

Search for Another Location

Airport:

Trip Planner

Search our weather history database for the weather conditions in past years. The results will help you decide how hot, cold, wet, or windy it might be!

Date:

Astronomy

Mar. 17, 2013 Rise Set
Actual Time 7:33 AM EDT 7:36 PM EDT
Civil Twilight 7:10 AM EDT 7:59 PM EDT
Nautical Twilight 6:44 AM EDT 8:25 PM EDT
Astronomical Twilight 6:17 AM EDT 8:52 PM EDT
Moon 11:19 AM EDT (3/17) 12:10 AM EDT (3/17)
Length of Visible Light 12h 48m
Length of Day
12h 03m
Waxing Crescent, 31% of the Moon is Illuminated
Mar 17
Waxing Crescent
Mar 19
First Quarter
Mar 27
Full
Apr 3
Last Quarter
Apr 10
New

Hourly Weather History & Observations

Time (EDT) Temp. Dew Point Humidity Pressure Visibility Wind Dir Wind Speed Gust Speed Precip Events Conditions
12:53 AM 69.1 °F 57.0 °F 65% 30.11 in 10.0 mi ESE 10.4 mph - N/A   Clear
1:53 AM 69.1 °F 57.9 °F 68% 30.10 in 10.0 mi ESE 9.2 mph - N/A   Clear
2:53 AM 69.1 °F 59.0 °F 70% 30.09 in 10.0 mi SE 9.2 mph - N/A   Scattered Clouds
3:53 AM 69.1 °F 59.0 °F 70% 30.07 in 10.0 mi SE 8.1 mph - N/A   Scattered Clouds
4:53 AM 70.0 °F 59.0 °F 68% 30.05 in 10.0 mi SE 11.5 mph - N/A   Mostly Cloudy
5:53 AM 71.1 °F 60.1 °F 68% 30.06 in 10.0 mi SE 11.5 mph - N/A   Overcast
5:55 AM 71.6 °F 60.8 °F 69% 30.06 in 10.0 mi SE 10.4 mph - N/A   Scattered Clouds
6:53 AM 71.1 °F 57.9 °F 63% 30.07 in 10.0 mi SSE 8.1 mph - N/A   Scattered Clouds
7:53 AM 71.1 °F 59.0 °F 66% 30.08 in 10.0 mi SE 8.1 mph - N/A   Mostly Cloudy
8:53 AM 73.0 °F 61.0 °F 66% 30.10 in 10.0 mi SE 8.1 mph - N/A   Scattered Clouds
9:53 AM 75.0 °F 61.0 °F 62% 30.11 in 10.0 mi ESE 10.4 mph - N/A   Scattered Clouds
10:53 AM 77.0 °F 63.0 °F 62% 30.12 in 10.0 mi ESE 13.8 mph - N/A   Scattered Clouds
11:53 AM 77.0 °F 62.1 °F 60% 30.12 in 10.0 mi ESE 12.7 mph - N/A   Scattered Clouds
12:53 PM 79.0 °F 63.0 °F 58% 30.11 in 10.0 mi ESE 12.7 mph - N/A   Scattered Clouds
1:53 PM 78.1 °F 63.0 °F 60% 30.07 in 10.0 mi SE 13.8 mph - N/A   Scattered Clouds
2:53 PM 79.0 °F 61.0 °F 54% 30.06 in 10.0 mi ESE 12.7 mph - N/A   Scattered Clouds
3:53 PM 79.0 °F 62.1 °F 56% 30.03 in 10.0 mi SE 11.5 mph - N/A   Scattered Clouds
4:53 PM 78.1 °F 63.0 °F 60% 30.02 in 10.0 mi ESE 13.8 mph - N/A   Mostly Cloudy
5:53 PM 75.0 °F 63.0 °F 66% 30.02 in 10.0 mi East 10.4 mph - N/A   Mostly Cloudy
6:53 PM 73.9 °F 63.0 °F 68% 30.00 in 10.0 mi East 12.7 mph - N/A   Mostly Cloudy
7:53 PM 72.0 °F 64.0 °F 76% 30.01 in 10.0 mi ESE 8.1 mph - N/A   Mostly Cloudy
8:53 PM 71.1 °F 64.0 °F 78% 30.04 in 10.0 mi East 6.9 mph - N/A   Scattered Clouds
9:53 PM 72.0 °F 64.9 °F 78% 30.05 in 10.0 mi ESE 8.1 mph - N/A   Scattered Clouds
10:17 PM 71.6 °F 64.4 °F 78% 30.06 in 10.0 mi ESE 8.1 mph - N/A   Mostly Cloudy
10:28 PM 71.6 °F 64.4 °F 78% 30.06 in 10.0 mi ESE 8.1 mph - N/A   Scattered Clouds
10:36 PM 71.6 °F 64.4 °F 78% 30.07 in 10.0 mi ESE 8.1 mph - N/A   Mostly Cloudy
10:53 PM 72.0 °F 64.9 °F 78% 30.06 in 10.0 mi ESE 8.1 mph - N/A   Mostly Cloudy
11:53 PM 71.1 °F 64.9 °F 81% 30.06 in 10.0 mi East 8.1 mph - N/A   Clear